Tracking 19489 objects as of 23-Jan-2019
HD Live streaming from Space Station
objects crossing your sky now

COSMOS 1544

Track COSMOS 1544 now!
10-day predictions
COSMOS 1544 is classified as:


NORAD ID: 14819
Int'l Code: 1984-027A
Perigee: 481.3 km
Apogee: 501.8 km
Inclination: 82.5 °
Period: 94.3 minutes
Semi major axis: 6862 km
RCS: 8.9 m2 (large)
Launch date: March 15, 1984
Source: Commonwealth of Independent States (former USSR) (CIS)
Launch site: PLESETSK MISSILE AND SPACE COMPLEX (PKMTR)
aabbcc
Your satellite tracking list
Your tracking list is empty




NASA's NSSDC Master Catalog

Two Line Element Set (TLE):
1 14819U 84027A   19022.85890189  .00000855  00000-0  30702-4 0  9990
2 14819  82.4844 159.4929 0014939 137.0468 223.1940 15.27116364905000
Source of the keplerian elements: AFSPC